CW4957 Weather Reports


Display with metric or nautical units.
time (UTC)temp
F
wind
direction
speed
MPH
gust
MPH
rain 1hr
in
rain 24hr
in
rain mn
in
humidity
%
barometer
mb
20260901222802 64 18 0.0 3.0 0.00 0.75 0.75 95 1017.1
20260901222306 64 18 0.0 3.0 0.00 0.75 0.75 95 1016.9
20260901221747 65 311 0.0 3.0 0.00 0.75 0.75 95 1016.9
20260901221252 65 306 1.0 4.0 0.00 0.75 0.75 95 1016.9
20260901220747 65 287 1.0 4.0 0.00 0.75 0.75 95 1017.0
20260901220302 65 355 0.0 2.0 0.00 0.75 0.75 95 1017.0
20260901215802 65 355 0.0 0.0 0.00 0.75 0.75 95 1017.0
20260901215255 65 355 0.0 1.0 0.00 0.75 0.75 95 1016.7
20260901214753 65 355 0.0 2.0 0.00 0.75 0.75 95 1016.7
20260901214250 66 355 0.0 2.0 0.00 0.75 0.75 95 1016.7
20260901213750 66 355 1.0 3.0 0.00 0.75 0.75 95 1016.5
20260901213249 66 313 0.0 2.0 0.00 0.75 0.75 96 1016.5
20260901212749 66 309 0.0 2.0 0.00 0.75 0.75 96 1016.5
20260901212249 66 309 1.0 2.0 0.00 0.75 0.75 95 1016.5
20260901211749 66 304 0.0 3.0 0.00 0.75 0.75 96 1016.5
20260901211250 67 304 1.0 3.0 0.00 0.75 0.75 96 1016.5
20260901210758 67 240 0.0 2.0 0.00 0.75 0.75 96 1016.4
20260901210250 67 240 0.0 2.0 0.00 0.75 0.75 96 1016.4
20260901205752 67 240 0.0 1.0 0.00 0.75 0.75 96 1016.4
20260901205308 67 240 0.0 2.0 0.00 0.75 0.75 96 1016.2
20260901204750 67 240 0.0 2.0 0.00 0.75 0.75 96 1016.2
20260901204247 67 238 0.0 1.0 0.00 0.75 0.75 96 1016.2
20260901203748 67 238 0.0 3.0 0.00 0.75 0.75 96 1016.2
20260901203251 67 238 1.0 3.0 0.00 0.75 0.75 96 1016.2
20260901202750 67 233 0.0 0.0 0.00 0.75 0.75 96 1016.2
20260901202313 67 233 0.0 0.0 0.01 0.75 0.75 96 1015.9
20260901201802 67 233 0.0 1.0 0.03 0.75 0.75 96 1015.9
20260901201306 67 233 0.0 2.0 0.04 0.75 0.75 96 1015.9
20260901200805 68 233 0.0 2.0 0.04 0.75 0.75 96 1015.8
20260901200259 68 232 0.0 2.0 0.04 0.75 0.75 96 1015.8
20260901195816 68 232 0.0 3.0 0.04 0.75 0.75 96 1015.8
20260901195254 68 232 0.0 3.0 0.05 0.75 0.75 96 1015.7
20260901194758 68 183 0.0 0.0 0.06 0.75 0.75 96 1015.7
20260901194258 68 183 0.0 0.0 0.07 0.75 0.75 96 1015.7
20260901193759 68 183 0.0 0.0 0.08 0.75 0.75 96 1015.7
20260901193303 68 183 0.0 0.0 0.08 0.75 0.75 96 1015.7
20260901192803 68 183 0.0 6.0 0.09 0.75 0.75 96 1015.7
20260901192306 68 183 3.0 6.0 0.09 0.74 0.74 96 1015.7
20260901191804 68 277 0.0 1.0 0.09 0.72 0.72 96 1015.7
20260901191251 68 277 0.0 1.0 0.09 0.71 0.71 96 1015.7
20260901190747 68 277 0.0 1.0 0.10 0.71 0.71 96 1015.7
20260901190306 68 277 0.0 2.0 0.11 0.71 0.71 96 1015.7
20260901185746 68 277 1.0 2.0 0.10 0.70 0.70 96 1015.7
20260901185323 68 277 0.0 0.0 0.11 0.70 0.70 96 1015.8
20260901184803 68 277 0.0 0.0 0.11 0.69 0.69 96 1015.8
20260901184247 68 277 0.0 0.0 0.11 0.68 0.68 96 1015.8
20260901183805 68 277 0.0 0.0 0.12 0.67 0.67 96 1015.9
20260901183305 68 277 0.0 0.0 0.12 0.66 0.66 96 1015.9
20260901182744 68 277 0.0 0.0 0.14 0.66 0.66 96 1015.9
20260901182305 68 277 0.0 0.0 0.14 0.65 0.65 96 1015.8
20260901181759 68 277 0.0 0.0 0.13 0.63 0.63 96 1015.8
20260901181259 67 277 0.0 0.0 0.12 0.62 0.62 96 1015.8
20260901180759 67 277 0.0 0.0 0.11 0.61 0.61 96 1015.7
20260901180251 67 277 0.0 0.0 0.10 0.60 0.60 96 1015.7
20260901175803 67 277 0.0 1.0 0.10 0.60 0.60 96 1015.7
20260901175305 67 277 0.0 2.0 0.09 0.59 0.59 96 1015.6
20260901174749 67 277 0.0 1.0 0.08 0.58 0.58 96 1015.6
20260901174247 67 277 0.0 0.0 0.07 0.57 0.57 96 1015.6
20260901173747 67 277 0.0 0.0 0.05 0.55 0.55 96 1015.6
20260901173248 67 277 0.0 0.0 0.04 0.54 0.54 96 1015.6
20260901172805 67 277 0.0 0.0 0.03 0.52 0.52 96 1015.6
20260901172247 67 277 0.0 0.0 0.03 0.51 0.51 96 1015.5
20260901171743 67 277 0.0 0.0 0.04 0.50 0.50 96 1015.5
20260901171249 67 277 0.0 0.0 0.06 0.50 0.50 96 1015.5
20260901170754 67 277 0.0 0.0 0.09 0.50 0.50 96 1015.5
20260901170254 67 277 0.0 0.0 0.11 0.50 0.50 96 1015.5
20260901165751 67 277 0.0 1.0 0.12 0.50 0.50 96 1015.5
20260901165247 67 277 0.0 1.0 0.12 0.50 0.50 96 1015.2
20260901164745 67 277 0.0 2.0 0.12 0.50 0.50 96 1015.2
20260901164311 67 277 0.0 1.0 0.13 0.50 0.50 96 1015.2
20260901163749 67 277 0.0 0.0 0.14 0.50 0.50 96 1015.1
20260901163249 67 277 0.0 1.0 0.15 0.50 0.50 96 1015.1
20260901162808 67 277 0.0 1.0 0.14 0.49 0.49 96 1015.1
20260901162247 67 277 0.0 2.0 0.13 0.48 0.48 96 1015.1
20260901161805 67 277 0.0 2.0 0.11 0.46 0.46 96 1015.1
20260901161247 67 348 0.0 0.0 0.09 0.44 0.44 96 1015.1
20260901160747 67 348 0.0 0.0 0.06 0.41 0.41 96 1015.7
20260901160252 67 348 0.0 0.0 0.04 0.39 0.39 96 1015.7
20260901155750 67 348 0.0 0.0 0.03 0.38 0.38 96 1015.7
20260901155251 67 348 0.0 0.0 0.03 0.38 0.38 96 1015.4
20260901154749 67 348 0.0 1.0 0.02 0.37 0.37 96 1015.4
20260901154312 67 348 0.0 1.0 0.02 0.37 0.37 96 1015.4
20260901153749 67 348 0.0 0.0 0.01 0.36 0.36 96 1015.3
20260901153249 67 348 0.0 0.0 0.00 0.35 0.35 96 1015.3
20260901152814 67 348 0.0 0.0 0.00 0.35 0.35 96 1015.3
20260901152259 67 348 0.0 0.0 0.01 0.35 0.35 96 1015.5
20260901151803 67 348 0.0 0.0 0.01 0.35 0.35 96 1015.5
20260901151321 67 348 0.0 0.0 0.01 0.35 0.35 96 1015.5
20260901150759 67 348 0.0 0.0 0.01 0.35 0.35 96 1015.5
20260901150257 67 348 0.0 0.0 0.01 0.35 0.35 96 1015.5
20260901145819 67 348 0.0 0.0 0.01 0.35 0.35 96 1015.5
20260901145320 67 348 0.0 0.0 0.01 0.35 0.35 96 1015.7
20260901144744 67 348 0.0 0.0 0.01 0.35 0.35 96 1015.7
20260901144251 67 348 0.0 0.0 0.01 0.35 0.35 96 1015.7
20260901143750 67 348 0.0 0.0 0.01 0.35 0.35 96 1015.7
20260901143257 67 348 0.0 0.0 0.01 0.35 0.35 96 1015.7
20260901142756 67 348 0.0 0.0 0.01 0.35 0.35 96 1015.7
20260901142314 67 348 0.0 0.0 0.00 0.34 0.34 96 1015.9
20260901141806 67 348 0.0 0.0 0.00 0.34 0.34 96 1015.9
20260901141306 67 348 0.0 0.0 0.00 0.34 0.34 96 1015.9
20260901140743 67 348 0.0 0.0 0.00 0.34 0.34 96 1016.1
20260901140258 67 348 0.0 0.0 0.00 0.34 0.34 96 1016.1
20260901135759 67 348 0.0 0.0 0.00 0.34 0.34 96 1016.1
20260901135244 67 348 0.0 1.0 0.00 0.34 0.34 96 1016.1
20260901134803 67 348 0.0 1.0 0.00 0.34 0.34 96 1016.1
20260901134322 67 348 0.0 0.0 0.00 0.34 0.34 96 1016.1
20260901133801 67 348 0.0 0.0 0.01 0.34 0.34 96 1015.7
20260901133306 67 348 0.0 0.0 0.01 0.34 0.34 96 1015.7
20260901132808 67 348 0.0 0.0 0.01 0.34 0.34 96 1015.7
20260901132249 67 348 0.0 0.0 0.01 0.34 0.34 95 1015.8
20260901131827 67 348 0.0 2.0 0.01 0.34 0.34 95 1015.8
20260901131304 67 348 1.0 2.0 0.02 0.34 0.34 95 1015.8
20260901130749 67 348 0.0 0.0 0.04 0.34 0.34 95 1016.2
20260901130259 67 348 0.0 0.0 0.04 0.34 0.34 95 1016.2
20260901125804 67 348 0.0 0.0 0.05 0.34 0.34 95 1016.2
20260901125324 67 348 0.0 0.0 0.06 0.34 0.34 95 1016.4
20260901124803 67 348 0.0 0.0 0.07 0.34 0.34 95 1016.4
20260901124253 66 348 0.0 0.0 0.09 0.34 0.34 95 1016.4
20260901123751 66 348 0.0 0.0 0.09 0.33 0.33 95 1016.1
20260901123249 66 348 0.0 1.0 0.10 0.33 0.33 95 1016.1
20260901122747 66 348 0.0 2.0 0.11 0.33 0.33 95 1016.1
20260901122251 66 348 1.0 2.0 0.12 0.33 0.33 95 1016.2
20260901121754 66 348 0.0 0.0 0.12 0.32 0.32 95 1016.2
20260901121254 66 348 0.0 0.0 0.14 0.32 0.32 95 1016.2
20260901120756 66 348 0.0 0.0 0.14 0.30 0.30 95 1016.4
20260901120312 66 348 0.0 0.0 0.14 0.29 0.29 95 1016.4
20260901115756 66 348 0.0 0.0 0.16 0.29 0.29 95 1016.4
20260901115306 66 348 0.0 0.0 0.17 0.28 0.28 95 1016.2
20260901114802 66 348 0.0 0.0 0.18 0.27 0.27 95 1016.2
20260901114257 66 348 0.0 0.0 0.18 0.25 0.25 95 1016.2
20260901113754 66 348 0.0 0.0 0.18 0.24 0.24 95 1016.1
20260901113324 66 348 0.0 0.0 0.18 0.23 0.23 95 1016.1
20260901112821 66 348 0.0 0.0 0.17 0.22 0.22 95 1016.1
20260901112301 66 348 0.0 0.0 0.16 0.21 0.21 95 1016.0
20260901111802 66 348 0.0 0.0 0.14 0.19 0.19 95 1016.0
20260901111324 66 348 0.0 0.0 0.13 0.18 0.18 95 1016.0
20260901110822 66 348 0.0 0.0 0.11 0.16 0.16 95 1015.8
20260901110311 66 348 0.0 0.0 0.11 0.15 0.15 95 1015.8
20260901105745 66 348 0.0 0.0 0.09 0.13 0.13 95 1015.8
20260901105252 66 348 0.0 0.0 0.07 0.11 0.11 94 1016.1
20260901104817 66 348 0.0 0.0 0.05 0.09 0.09 94 1016.1
20260901104257 66 348 0.0 0.0 0.03 0.07 0.07 94 1016.1
20260901103820 66 348 0.0 0.0 0.02 0.06 0.06 94 1015.9
20260901103303 66 348 0.0 0.0 0.02 0.05 0.05 94 1015.9
20260901102802 66 348 0.0 0.0 0.02 0.05 0.05 94 1015.9
20260901102307 66 348 0.0 0.0 0.02 0.05 0.05 94 1015.6
20260901101747 66 348 0.0 0.0 0.03 0.05 0.05 94 1015.6
20260901101257 66 348 0.0 0.0 0.03 0.05 0.05 94 1015.6
20260901100810 66 348 0.0 0.0 0.04 0.05 0.05 94 1015.5
20260901100325 66 348 0.0 0.0 0.03 0.04 0.04 94 1015.5
20260901095747 66 348 0.0 0.0 0.03 0.04 0.04 94 1015.5
20260901095306 66 348 0.0 0.0 0.03 0.04 0.04 93 1015.7
20260901094807 66 348 0.0 0.0 0.03 0.04 0.04 93 1015.7
20260901094247 66 348 0.0 0.0 0.03 0.04 0.04 93 1015.7
20260901093814 66 348 0.0 0.0 0.03 0.04 0.04 93 1015.8
20260901093252 66 348 0.0 0.0 0.02 0.03 0.03 93 1015.8
20260901092804 66 348 0.0 0.0 0.02 0.03 0.03 93 1015.8
20260901092305 66 348 0.0 0.0 0.02 0.03 0.03 93 1015.7
20260901091801 66 346 0.0 0.0 0.01 0.02 0.02 93 1015.7
20260901091253 66 346 0.0 0.0 0.01 0.02 0.02 93 1015.7
20260901090757 66 346 0.0 0.0 0.00 0.01 0.01 93 1015.9
20260901090249 66 346 0.0 0.0 0.00 0.01 0.01 93 1015.9
20260901085803 66 346 0.0 0.0 0.00 0.01 0.01 93 1015.9
20260901085306 66 346 0.0 0.0 0.00 0.01 0.01 93 1016.0
20260901084809 66 346 0.0 0.0 0.00 0.01 0.01 93 1016.0
20260901084244 66 346 0.0 0.0 0.00 0.01 0.01 93 1016.0
20260901083804 66 346 0.0 0.0 0.00 0.01 0.01 93 1015.9
20260901083301 66 346 0.0 0.0 0.00 0.01 0.01 93 1015.9
20260901082803 66 346 0.0 0.0 0.00 0.01 0.01 93 1015.9
20260901082301 66 346 0.0 0.0 0.00 0.01 0.01 93 1015.9
20260901081802 66 346 0.0 0.0 0.00 0.01 0.01 93 1015.9
20260901081305 66 346 0.0 0.0 0.00 0.01 0.01 92 1015.9
20260901080750 66 346 0.0 0.0 0.00 0.01 0.01 92 1015.7
20260901080302 66 346 0.0 0.0 0.00 0.01 0.01 92 1015.7
20260901075805 66 346 0.0 0.0 0.00 0.01 0.01 92 1015.7
20260901075249 66 346 0.0 0.0 0.00 0.01 0.01 92 1015.9
20260901074750 67 346 0.0 2.0 0.00 0.01 0.01 92 1015.9
20260901074312 67 346 1.0 2.0 0.00 0.01 0.01 92 1015.9
20260901073756 67 346 1.0 2.0 0.00 0.01 0.01 91 1016.2
20260901073253 67 327 1.0 2.0 0.00 0.01 0.01 91 1016.2
20260901072753 67 351 1.0 2.0 0.00 0.01 0.01 91 1016.2
20260901072319 67 329 0.0 2.0 0.00 0.01 0.01 91 1016.3
20260901071802 67 329 1.0 2.0 0.00 0.01 0.01 91 1016.3
20260901071245 67 329 1.0 2.0 0.00 0.01 0.01 91 1016.3
20260901070746 67 328 0.0 0.0 0.01 0.01 0.01 90 1016.6
20260901070305 67 328 0.0 0.0 0.01 0.01 0.01 90 1016.6
20260901065751 67 328 0.0 0.0 0.01 0.01 0.01 90 1016.6
20260901065254 68 328 0.0 0.0 0.01 0.01 0.01 90 1016.7
20260901064754 68 328 0.0 0.0 0.01 0.01 0.01 89 1016.7
20260901064258 68 328 0.0 0.0 0.01 0.01 0.01 89 1016.7
20260901063751 68 328 0.0 0.0 0.01 0.01 0.01 89 1016.7
20260901063249 68 328 0.0 0.0 0.01 0.01 0.01 88 1016.7
20260901062750 68 328 0.0 0.0 0.01 0.01 0.01 88 1016.7
20260901062250 68 328 0.0 1.0 0.01 0.01 0.01 88 1016.7
20260901061747 68 328 0.0 1.0 0.01 0.01 0.01 87 1016.7
20260901061250 68 328 0.0 1.0 0.01 0.01 0.01 87 1016.7
20260901060749 68 328 0.0 0.0 0.00 0.00 0.00 86 1016.7
20260901060320 68 328 0.0 0.0 0.00 0.00 0.00 86 1016.7
20260901055804 68 329 0.0 1.0 0.00 0.00 0.00 86 1016.7
20260901055306 68 329 0.0 1.0 0.00 0.00 0.00 86 1016.7
20260901054748 68 329 0.0 2.0 0.00 0.00 0.00 86 1016.7
20260901054252 68 328 0.0 1.0 0.00 0.00 0.00 85 1016.7
20260901053751 68 328 0.0 1.0 0.00 0.00 0.00 85 1016.8
20260901053248 68 328 0.0 1.0 0.00 0.00 0.00 85 1016.8
20260901052808 68 328 0.0 0.0 0.00 0.00 0.00 85 1016.8
20260901052307 69 328 0.0 0.0 0.00 0.00 0.00 86 1016.7
20260901051803 69 328 0.0 0.0 0.00 0.00 0.00 86 1016.7
20260901051300 69 328 0.0 0.0 0.00 0.00 0.00 86 1016.7
20260901050756 69 328 0.0 0.0 0.00 0.00 0.00 86 1016.7
20260901050245 69 328 0.0 0.0 0.00 0.00 0.00 86 1016.7
20260901045805 69 328 0.0 0.0 0.00 0.00 0.00 86 1016.7
20260901045306 69 328 0.0 0.0 0.00 0.00 0.00 85 1016.9
20260901044820 69 328 0.0 0.0 0.00 0.00 0.00 85 1016.9
20260901044301 69 328 0.0 0.0 0.00 0.00 0.00 85 1016.9
20260901043801 69 328 0.0 0.0 0.00 0.00 0.00 85 1016.8
20260901043303 69 328 0.0 0.0 0.00 0.00 0.00 85 1016.8
20260901042802 69 328 0.0 0.0 0.00 0.00 0.00 85 1016.8
20260901042246 69 328 0.0 0.0 0.00 0.00 0.00 85 1016.7
20260901041749 69 328 0.0 0.0 0.00 0.00 0.00 85 1016.7
20260901041248 69 328 0.0 0.0 0.00 0.00 0.00 85 1016.7
20260901040803 69 328 0.0 0.0 0.00 0.00 0.00 85 1016.7
20260901040254 69 328 0.0 0.0 0.00 0.00 0.00 84 1016.7
20260901035752 69 328 0.0 0.0 0.00 0.00 0.00 84 1016.7
20260901035253 69 328 0.0 0.0 0.00 0.00 0.00 84 1016.7
20260901034747 69 328 0.0 0.0 0.00 0.00 0.00 84 1016.7
20260901034249 69 328 0.0 1.0 0.00 0.00 0.00 84 1016.7
20260901033751 69 328 0.0 1.0 0.00 0.00 0.00 83 1016.8
20260901033251 69 328 0.0 0.0 0.00 0.00 0.00 83 1016.8
20260901032748 69 328 0.0 0.0 0.00 0.00 0.00 83 1016.8
20260901032251 69 328 0.0 0.0 0.00 0.00 0.00 82 1016.8
20260901031812 69 328 0.0 0.0 0.00 0.00 0.00 82 1016.8
20260901031250 69 328 0.0 0.0 0.00 0.00 0.00 82 1016.8
20260901030754 69 328 0.0 0.0 0.00 0.00 0.00 82 1017.1
20260901030248 69 328 0.0 0.0 0.00 0.00 0.00 82 1017.1
20260901025750 69 328 0.0 0.0 0.00 0.00 0.00 82 1017.1
20260901025324 69 328 0.0 0.0 0.00 0.00 0.00 82 1017.2
20260901024744 69 328 0.0 0.0 0.00 0.00 0.00 81 1017.2
20260901024246 69 328 0.0 0.0 0.00 0.00 0.00 81 1017.2
20260901023746 70 328 0.0 0.0 0.00 0.00 0.00 81 1017.0
20260901023247 70 328 0.0 0.0 0.00 0.00 0.00 81 1017.0
20260901022748 70 328 0.0 0.0 0.00 0.00 0.00 81 1017.0
20260901022258 70 328 0.0 0.0 0.00 0.00 0.00 81 1016.8
20260901021744 70 328 0.0 0.0 0.00 0.00 0.00 80 1016.8
20260901021257 70 328 0.0 0.0 0.00 0.00 0.00 79 1016.8
20260901020757 70 328 0.0 0.0 0.00 0.00 0.00 79 1016.7
20260901020302 70 328 0.0 0.0 0.00 0.00 0.00 79 1016.7
20260901015749 70 328 0.0 0.0 0.00 0.00 0.00 79 1016.7
20260901015256 70 328 0.0 0.0 0.00 0.00 0.00 79 1016.7
20260901014803 70 328 0.0 0.0 0.00 0.00 0.00 79 1016.7
20260901014248 70 328 0.0 0.0 0.00 0.00 0.00 78 1016.7
20260901013800 70 328 0.0 0.0 0.00 0.00 0.00 78 1016.8
20260901013244 70 328 0.0 0.0 0.00 0.00 0.00 78 1016.8
20260901012746 71 328 0.0 0.0 0.00 0.00 0.00 78 1016.8
20260901012249 71 328 0.0 0.0 0.00 0.00 0.00 77 1017.0
20260901011753 71 328 0.0 0.0 0.00 0.00 0.00 77 1017.0
20260901011301 71 328 0.0 0.0 0.00 0.00 0.00 77 1017.0
20260901010749 71 328 0.0 0.0 0.00 0.00 0.00 77 1016.9
20260901010300 71 328 0.0 0.0 0.00 0.00 0.00 77 1016.9
20260901005746 71 328 0.0 0.0 0.00 0.00 0.00 77 1016.9
20260901005250 71 328 0.0 0.0 0.00 0.00 0.00 77 1016.8
20260901004757 71 328 0.0 0.0 0.00 0.00 0.00 76 1016.8
20260901004244 71 328 0.0 0.0 0.00 0.00 0.00 76 1016.8
20260901003812 71 328 0.0 0.0 0.00 0.00 0.00 76 1016.8
20260901003256 71 328 0.0 0.0 0.00 0.00 0.00 76 1016.8
20260901002801 72 328 0.0 0.0 0.00 0.00 0.00 75 1016.8
20260901002251 72 328 0.0 0.0 0.00 0.00 0.00 76 1016.8
20260901001757 72 328 0.0 0.0 0.00 0.00 0.00 75 1016.8
20260901001250 72 328 0.0 0.0 0.00 0.00 0.00 75 1016.8
20260901000756 72 328 0.0 0.0 0.00 0.00 0.00 75 1016.8
20260901000258 72 328 0.0 0.0 0.00 0.00 0.00 74 1016.8
20260831235801 72 328 0.0 0.0 0.00 0.00 0.00 74 1016.8
20260831235306 72 328 0.0 0.0 0.00 0.00 0.00 74 1016.9
20260831234752 72 328 0.0 0.0 0.00 0.00 0.00 74 1016.9
20260831234259 72 328 0.0 0.0 0.00 0.00 0.00 74 1016.9
20260831233749 73 328 0.0 0.0 0.00 0.00 0.00 74 1017.0
20260831233253 73 328 0.0 0.0 0.00 0.00 0.00 74 1017.0
20260831232758 73 328 0.0 0.0 0.00 0.00 0.00 73 1017.0
20260831232305 73 328 0.0 0.0 0.00 0.00 0.00 73 1017.2
20260831231809 73 328 0.0 0.0 0.00 0.00 0.00 73 1017.2
20260831231256 73 328 0.0 0.0 0.00 0.00 0.00 73 1017.2
20260831230803 73 328 0.0 0.0 0.00 0.00 0.00 72 1017.3
20260831230303 73 328 0.0 0.0 0.00 0.00 0.00 72 1017.3
20260831225750 73 328 0.0 1.0 0.00 0.00 0.00 72 1017.3
20260831225317 73 328 0.0 1.0 0.00 0.00 0.00 71 1017.3
20260831224748 73 328 0.0 0.0 0.00 0.00 0.00 71 1017.3
20260831224255 74 328 0.0 2.0 0.00 0.00 0.00 71 1017.3
20260831223800 74 328 0.0 2.0 0.00 0.00 0.00 70 1017.3
20260831223250 74 318 0.0 2.0 0.00 0.00 0.00 69 1017.3